Location: Baix
(44.7118°N, 4.7648°E)
Time: 09:14:12
(UTC+00:00)

A-11 Canister half - Pass Details

Date: 05 December 2020
Orbit: 1517 x 1683 km, 47.2° (Epoch: 22 January)

Event Time Altitude Azimuth Distance (km) Brightness Sun altitude
Rises 16:27:57 0° 294° (WNW) 4,909 12.3 -5.1°
Reaches altitude 10° 16:31:22 10° 287° (WNW) 3,932 11.9 -5.6°
Maximum altitude 16:40:21 38° 224° (SW) 2,378 10.7 -7.1°
Drops below altitude 10° 16:49:20 10° 161° (SSE) 3,925 11.2 -8.5°
Sets 16:52:46 0° 154° (SSE) 4,899 11.6 -9.1°
